Ephrata, WA

1:05 AM PST on February 21, 2017 (GMT -0800)
Ephrata Municipal

Weather History for KEPH - March, 2013

Change the Weather History Date:

Friday, March 1, 2013

  Actual Average Record
Temperature  
Mean Temperature 48 °F 38 °F  
Max Temperature 57 °F 48 °F 62 °F (1968)
Min Temperature 39 °F 28 °F 7 °F (1962)
Degree Days  
Heating Degree Days 17 27  
Month to date heating degree days 17 27  
Since 1 July heating degree days 4250 4600  
Cooling Degree Days 0 0  
Month to date cooling degree days 0 0  
Year to date cooling degree days 0 0  
Moisture  
Dew Point 41 °F    
Average Humidity 79    
Maximum Humidity 100    
Minimum Humidity 57    
Precipitation  
Precipitation 0.00 in 0.03 in 0.31 in (1997)
Month to date precipitation 0.00 0.03  
Year to date precipitation 0.35 1.68  
Sea Level Pressure  
Sea Level Pressure 30.29 in    
Wind  
Wind Speed 10 mph (SSW)    
Max Wind Speed 24 mph    
Max Gust Speed 32 mph    
Visibility 7 miles    
Events Fog    
T = Trace of Precipitation, MM = Missing Value Source: NWS Daily Summary

Daily Weather History Graph

Daily Weather History Graph

Search for Another Location

Airport or City:

Trip Planner

Search our weather history database for the weather conditions in past years. The results will help you decide how hot, cold, wet, or windy it might be!

Date:

Astronomy

Mar. 01, 2013 Rise Set
Actual Time 6:37 AM PST 5:43 PM PST
Civil Twilight 6:06 AM PST 6:14 PM PST
Nautical Twilight 5:31 AM PST 6:49 PM PST
Astronomical Twilight 4:56 AM PST 7:25 PM PST
Moon 10:45 PM PST (3/1) 8:07 AM PST (3/1)
Length of Visible Light 12h 07m
Length of Day
11h 06m
Waning Gibbous, 82% of the Moon is Illuminated
Mar 1
Waning Gibbous
Mar 4
Last Quarter
Mar 11
New
Mar 19
First Quarter
Mar 27
Full

Hourly Weather History & Observations

Time (PST) Temp. Windchill Dew Point Humidity Pressure Visibility Wind Dir Wind Speed Gust Speed Precip Events Conditions
12:53 AM 41.0 °F 37.1 °F 39.0 °F 93% 30.34 in 5.0 mi ESE 5.8 mph - N/A   Mostly Cloudy
1:46 AM 41.0 °F - 39.2 °F 93% 30.31 in 4.0 mi Calm Calm - N/A   Scattered Clouds
1:53 AM 39.9 °F - 39.9 °F 100% 30.33 in 3.0 mi Calm Calm - N/A   Partly Cloudy
2:01 AM 39.2 °F 37.0 °F 37.4 °F 93% 30.30 in 1.8 mi SE 3.5 mph - N/A   Partly Cloudy
2:06 AM 39.2 °F 35.9 °F 37.4 °F 93% 30.30 in 0.8 mi SE 4.6 mph - N/A   Mist
2:17 AM 39.2 °F 34.2 °F 37.4 °F 93% 30.29 in 1.0 mi SE 6.9 mph - N/A   Mostly Cloudy
2:26 AM 39.2 °F 35.0 °F 39.2 °F 100% 30.29 in 0.8 mi South 5.8 mph - N/A   Overcast
2:36 AM 39.2 °F 34.2 °F 39.2 °F 100% 30.29 in 0.2 mi South 6.9 mph - N/A Fog Fog
2:53 AM 39.9 °F 35.8 °F 39.9 °F 100% 30.32 in 0.8 mi SSW 5.8 mph - N/A   Overcast
3:00 AM 39.2 °F 35.9 °F 39.2 °F 100% 30.29 in 2.0 mi SSW 4.6 mph - N/A   Overcast
3:10 AM 41.0 °F 36.4 °F 39.2 °F 93% 30.28 in 4.0 mi South 6.9 mph - N/A   Overcast
4:53 AM 39.9 °F 33.4 °F 37.9 °F 93% 30.30 in 8.0 mi SSW 10.4 mph - N/A   Clear
5:53 AM 45.0 °F 39.3 °F 39.9 °F 82% 30.28 in 10.0 mi SW 11.5 mph - N/A   Clear
6:53 AM 46.9 °F - 41.0 °F 80% 30.29 in 10.0 mi SW 13.8 mph - N/A   Partly Cloudy
7:53 AM 48.9 °F - 43.0 °F 80% 30.29 in 10.0 mi SW 16.1 mph - N/A   Clear
9:53 AM 53.1 °F - 45.0 °F 74% 30.30 in 10.0 mi SSW 11.5 mph - N/A   Mostly Cloudy
10:53 AM 55.0 °F - 45.0 °F 69% 30.29 in 10.0 mi SSW 19.6 mph 25.3 mph N/A   Clear
11:53 AM 55.9 °F - 44.1 °F 64% 30.29 in 10.0 mi SSW 17.3 mph - N/A   Clear
12:53 PM 55.9 °F - 45.0 °F 67% 30.29 in 10.0 mi South 17.3 mph - N/A   Clear
1:53 PM 55.9 °F - 43.0 °F 62% 30.28 in 10.0 mi South 19.6 mph 26.5 mph N/A   Clear
2:53 PM 55.9 °F - 45.0 °F 67% 30.29 in 10.0 mi South 8.1 mph - N/A   Clear
3:53 PM 57.0 °F - 43.0 °F 59% 30.26 in 10.0 mi SSW 18.4 mph - N/A   Clear
4:53 PM 55.0 °F - 43.0 °F 64% 30.27 in 10.0 mi South 16.1 mph - N/A   Clear
5:53 PM 53.1 °F - 42.1 °F 66% 30.26 in 10.0 mi South 10.4 mph - N/A   Clear
6:53 PM 51.1 °F - 42.1 °F 71% 30.27 in 10.0 mi WSW 4.6 mph - N/A   Clear
7:53 PM 51.1 °F - 42.1 °F 71% 30.26 in 10.0 mi SSW 8.1 mph - N/A   Clear
8:53 PM 50.0 °F - 42.1 °F 74% 30.25 in 10.0 mi WNW 5.8 mph - N/A   Clear
9:53 PM 48.0 °F - 39.9 °F 74% 30.25 in 10.0 mi North 5.8 mph - N/A   Clear
10:53 PM 44.1 °F - 39.0 °F 82% 30.25 in 10.0 mi Calm Calm - N/A   Clear
11:53 PM 39.9 °F - 37.0 °F 89% 30.25 in 10.0 mi Calm Calm - N/A   Clear